Guenther Schulte — VRGK8 — position and weather

sailwx.info

Track history (hours):
 
Tides and Currents Weather Stations Pressure Air Temp Water Temp Dewpoint Dewpoint Depression Visibility Wind Speed Wind Dir Waves Ship Positions

Guenther Schulte

Last reported at 2015-May-10 01:10 UTC. Time now 2015-May-27 07:48 UTC.
Position S 36°02' E 175°39'.
Warning: this ship's position is 17 days out of date.

Length 231 m; draft 9.9 m.

Type: Ship (hazmat cat C). MMSI: 477728800.

Date/timePositionNaut miles runAvg speedWind from/ knotsBaromVisibWave heightAir tempDewpointWater temp
2015-May-10 01:10S 36°02' E 175°39'1318.8
2015-May-10 00:30S 35°51' E 175°30'  
2015-May-04 11:24S 37°10' E 150°15'911.0
2015-May-04 10:33S 37°20' E 150°12'1111.3
2015-May-04 09:33S 37°30' E 150°08'1110.9
2015-May-04 08:32S 37°39' E 149°60'1111.0
2015-May-04 07:33S 37°46' E 149°49'1111.2
2015-May-04 06:33S 37°54' E 149°39'1311.2
2015-May-04 05:22S 38°02' E 149°26'1111.4
2015-May-04 04:22S 38°10' E 149°15'911.4
2015-May-04 03:33S 38°16' E 149°06'1211.3
2015-May-04 02:27S 38°24' E 148°54'1011.5
2015-May-04 01:33S 38°31' E 148°44'1111.3
2015-May-04 00:33S 38°38' E 148°33'1110.9
2015-May-03 23:33S 38°44' E 148°21'1310.7
2015-May-03 22:20S 38°49' E 148°06'1110.3
2015-May-03 21:19S 38°53' E 147°53'911.1
2015-May-03 20:30S 38°56' E 147°42'1111.4
2015-May-03 19:34S 38°60' E 147°30'1211.9
2015-May-03 18:34S 39°04' E 147°15'1212.1
2015-May-03 17:33S 39°08' E 147°01'1212.0
2015-May-03 16:34S 39°12' E 146°46'1211.8
2015-May-03 15:33S 39°16' E 146°32'1211.8
2015-May-03 14:34S 39°16' E 146°16'1111.3
2015-May-03 13:34S 39°13' E 146°02'1211.6
2015-May-03 12:34S 39°07' E 145°50'1211.6
2015-May-03 11:34S 38°60' E 145°38'16 0.4
2015-May-01 13:18S 38°49' E 145°22'1316.1
2015-May-01 12:30S 38°55' E 145°37'4815.2
2015-May-01 09:22S 39°08' E 146°36'1916.2
2015-May-01 08:13S 39°02' E 146°59'1116.3
2015-May-01 07:33S 38°58' E 147°12'1716.8
2015-May-01 06:34S 38°53' E 147°32'1716.7
2015-May-01 05:34S 38°47' E 147°53'1616.4
2015-May-01 04:34S 38°42' E 148°12'5316.8
2015-May-01 01:23S 38°29' E 149°19'  
Track history (hours):
 
Tides and Currents Weather Stations Pressure Air Temp Water Temp Dewpoint Dewpoint Depression Visibility Wind Speed Wind Dir Waves Ship Positions

Guenther Schulte

Last reported at 2015-May-10 01:10 UTC. Time now 2015-May-27 07:48 UTC.
Position S 36°02' E 175°39'.
Warning: this ship's position is 17 days out of date.

Length 231 m; draft 9.9 m.

Type: Ship (hazmat cat C). MMSI: 477728800.

Date/timePositionNaut miles runAvg speedWind from/ knotsBaromVisibWave heightAir tempDewpointWater temp
2015-May-10 01:10S 36°02' E 175°39'1318.8
2015-May-10 00:30S 35°51' E 175°30'  
2015-May-04 11:24S 37°10' E 150°15'911.0
2015-May-04 10:33S 37°20' E 150°12'1111.3
2015-May-04 09:33S 37°30' E 150°08'1110.9
2015-May-04 08:32S 37°39' E 149°60'1111.0
2015-May-04 07:33S 37°46' E 149°49'1111.2
2015-May-04 06:33S 37°54' E 149°39'1311.2
2015-May-04 05:22S 38°02' E 149°26'1111.4
2015-May-04 04:22S 38°10' E 149°15'911.4
2015-May-04 03:33S 38°16' E 149°06'1211.3
2015-May-04 02:27S 38°24' E 148°54'1011.5
2015-May-04 01:33S 38°31' E 148°44'1111.3
2015-May-04 00:33S 38°38' E 148°33'1110.9
2015-May-03 23:33S 38°44' E 148°21'1310.7
2015-May-03 22:20S 38°49' E 148°06'1110.3
2015-May-03 21:19S 38°53' E 147°53'911.1
2015-May-03 20:30S 38°56' E 147°42'1111.4
2015-May-03 19:34S 38°60' E 147°30'1211.9
2015-May-03 18:34S 39°04' E 147°15'1212.1
2015-May-03 17:33S 39°08' E 147°01'1212.0
2015-May-03 16:34S 39°12' E 146°46'1211.8
2015-May-03 15:33S 39°16' E 146°32'1211.8
2015-May-03 14:34S 39°16' E 146°16'1111.3
2015-May-03 13:34S 39°13' E 146°02'1211.6
2015-May-03 12:34S 39°07' E 145°50'1211.6
2015-May-03 11:34S 38°60' E 145°38'16 0.4
2015-May-01 13:18S 38°49' E 145°22'1316.1
2015-May-01 12:30S 38°55' E 145°37'4815.2
2015-May-01 09:22S 39°08' E 146°36'1916.2
2015-May-01 08:13S 39°02' E 146°59'1116.3
2015-May-01 07:33S 38°58' E 147°12'1716.8
2015-May-01 06:34S 38°53' E 147°32'1716.7
2015-May-01 05:34S 38°47' E 147°53'1616.4
2015-May-01 04:34S 38°42' E 148°12'5316.8
2015-May-01 01:23S 38°29' E 149°19'  

Dump ship's entire track history